Tracking 30923 objects as of 1-Jul-2025
HD Live streaming from Space Station
objects crossing your sky now

TITAN 3C TRANSTAGE DEB

Track TITAN 3C TRANSTAGE DEB now!
10-day predictions


NORAD ID: 1859
Int'l Code: 1965-082ES
Perigee: 689.6 km
Apogee: 784.9 km
Inclination: 32.1 °
Period: 99.4 minutes
Semi major axis: 7108 km
RCS: 0.1777 m2 (medium)
Launch date: October 15, 1965
Source: United States (US)
Launch site: AIR FORCE EASTERN TEST RANGE (AFETR)

Note: This is SATELLITE DEBRIS
Your satellite tracking list
FENGYUN 1C DEB
Track 1 satellite(s)




NASA's NSSDC Master Catalog

Two Line Element Set (TLE):
1  1859U 65082ES  25181.89079465  .00000498  00000-0  11751-3 0  9998
2  1859  32.1273  39.6294 0067062 146.7111 213.7772 14.48629881136626
Source of the keplerian elements: AFSPC